Location: Brunsbüttel
(52.3892°N, 10.6138°E)
Time: 06:38:10
(UTC+00:00)

ASTEX 1 - Pass Details

Date: 19 May 2025
Orbit: 714 x 734 km, 92.7° (Epoch: 22 June)

Event Time Altitude Azimuth Distance (km) Brightness Sun altitude
Rises 23:16:39 0° 6° (N) 3,163 8.4 -17.6°
Reaches altitude 10° 23:18:57 10° 7° (N) 2,240 7.2 -17.6°
Maximum altitude 23:23:56 86° 95° (E) 742 3.4 -17.6°
Enters shadow 23:26:15 32° 184° (S) 1,234 4.0 -17.6°
